Time,TemperatureF,DewpointF,PressureIn,WindDirection,WindDirectionDegrees,WindSpeedMPH,WindSpeedGustMPH,Humidity,HourlyPrecipIn,Conditions,Clouds,dailyrainin,SoftwareType,DateUTC
2013-11-08 00:00:00,42.1,33.7,30.11,West,281,0.0,0.0,72,0.00,,,0.00,Wunderground v.1.15,2013-11-08 08:00:00,
2013-11-08 00:05:00,41.9,33.5,30.11,West,281,0.0,0.0,72,0.00,,,0.00,Wunderground v.1.15,2013-11-08 08:05:00,
2013-11-08 00:15:00,41.6,33.2,30.11,WNW,282,0.0,0.0,72,0.00,,,0.00,Wunderground v.1.15,2013-11-08 08:15:00,
2013-11-08 00:20:00,41.5,33.5,30.11,West,281,0.0,0.0,73,0.00,,,0.00,Wunderground v.1.15,2013-11-08 08:20:00,
2013-11-08 00:30:00,41.3,33.6,30.11,West,281,0.0,0.0,74,0.00,,,0.00,Wunderground v.1.15,2013-11-08 08:30:00,
2013-11-08 00:40:00,41.2,33.5,30.11,West,281,0.0,0.0,74,0.00,,,0.00,Wunderground v.1.15,2013-11-08 08:40:00,
2013-11-08 00:45:00,41.2,33.5,30.11,West,281,0.0,0.0,74,0.00,,,0.00,Wunderground v.1.15,2013-11-08 08:45:00,
2013-11-08 00:50:00,41.1,33.1,30.11,West,281,0.0,0.0,73,0.00,,,0.00,Wunderground v.1.15,2013-11-08 08:50:00,
2013-11-08 01:00:00,40.9,33.6,30.11,West,281,0.0,0.0,75,0.00,,,0.00,Wunderground v.1.15,2013-11-08 09:00:00,
2013-11-08 01:05:00,40.8,33.5,30.11,West,281,0.0,0.0,75,0.00,,,0.00,Wunderground v.1.15,2013-11-08 09:05:00,
2013-11-08 01:15:00,40.8,33.2,30.11,West,281,0.0,0.0,74,0.00,,,0.00,Wunderground v.1.15,2013-11-08 09:15:00,
2013-11-08 01:20:00,40.5,33.2,30.11,WNW,282,0.0,0.0,75,0.00,,,0.00,Wunderground v.1.15,2013-11-08 09:20:00,
2013-11-08 01:30:00,40.3,33.3,30.11,West,281,0.0,0.0,76,0.00,,,0.00,Wunderground v.1.15,2013-11-08 09:30:00,
2013-11-08 01:40:00,40.2,33.2,30.11,West,281,0.0,0.0,76,0.00,,,0.00,Wunderground v.1.15,2013-11-08 09:40:00,
2013-11-08 01:45:00,40.2,33.2,30.11,West,281,0.0,0.0,76,0.00,,,0.00,Wunderground v.1.15,2013-11-08 09:45:00,
2013-11-08 01:50:00,40.1,33.1,30.11,West,281,0.0,0.0,76,0.00,,,0.00,Wunderground v.1.15,2013-11-08 09:50:00,
2013-11-08 02:00:00,39.9,32.9,30.11,West,281,0.0,0.0,76,0.00,,,0.00,Wunderground v.1.15,2013-11-08 10:00:00,
2013-11-08 02:10:00,39.8,32.8,30.11,West,281,0.0,0.0,76,0.00,,,0.00,Wunderground v.1.15,2013-11-08 10:10:00,
2013-11-08 02:15:00,39.8,33.5,30.11,West,281,0.0,0.0,78,0.00,,,0.00,Wunderground v.1.15,2013-11-08 10:15:00,
2013-11-08 02:20:00,39.8,33.2,30.11,West,281,0.0,0.0,77,0.00,,,0.00,Wunderground v.1.15,2013-11-08 10:20:00,
2013-11-08 02:30:00,39.6,33.3,30.11,West,281,0.0,0.0,78,0.00,,,0.00,Wunderground v.1.15,2013-11-08 10:30:00,
2013-11-08 02:35:00,39.6,33.3,30.11,West,281,0.0,0.0,78,0.00,,,0.00,Wunderground v.1.15,2013-11-08 10:35:00,
2013-11-08 02:45:00,39.5,33.2,30.11,West,281,0.0,0.0,78,0.00,,,0.00,Wunderground v.1.15,2013-11-08 10:45:00,
2013-11-08 02:50:00,39.3,33.0,30.11,West,281,0.0,0.0,78,0.00,,,0.00,Wunderground v.1.15,2013-11-08 10:50:00,
2013-11-08 03:00:00,39.1,32.8,30.11,West,281,0.0,0.0,78,0.00,,,0.00,Wunderground v.1.15,2013-11-08 11:00:00,
2013-11-08 03:10:00,38.9,32.9,30.11,West,281,0.0,0.0,79,0.00,,,0.00,Wunderground v.1.15,2013-11-08 11:10:00,
2013-11-08 03:15:00,38.9,32.9,30.11,West,281,0.0,0.0,79,0.00,,,0.00,Wunderground v.1.15,2013-11-08 11:15:00,
2013-11-08 03:20:00,38.8,32.8,30.11,WNW,282,0.0,0.0,79,0.00,,,0.00,Wunderground v.1.15,2013-11-08 11:20:00,
2013-11-08 03:30:00,38.6,32.6,30.11,WNW,282,0.0,0.0,79,0.00,,,0.00,Wunderground v.1.15,2013-11-08 11:30:00,
2013-11-08 03:35:00,38.6,32.6,30.11,West,281,0.0,0.0,79,0.00,,,0.00,Wunderground v.1.15,2013-11-08 11:35:00,
2013-11-08 03:45:00,38.5,32.9,30.10,West,281,0.0,0.0,80,0.00,,,0.00,Wunderground v.1.15,2013-11-08 11:45:00,
2013-11-08 03:50:00,38.5,32.9,30.10,West,281,0.0,0.0,80,0.00,,,0.00,Wunderground v.1.15,2013-11-08 11:50:00,
2013-11-08 04:00:00,38.2,32.3,30.10,West,281,0.0,0.0,79,0.00,,,0.00,Wunderground v.1.15,2013-11-08 12:00:00,
2013-11-08 04:10:00,38.0,32.4,30.10,West,281,0.0,0.0,80,0.00,,,0.00,Wunderground v.1.15,2013-11-08 12:10:00,
2013-11-08 04:15:00,37.9,32.3,30.10,West,281,0.0,0.0,80,0.00,,,0.00,Wunderground v.1.15,2013-11-08 12:15:00,
2013-11-08 04:20:00,37.9,32.3,30.10,West,281,0.0,0.0,80,0.00,,,0.00,Wunderground v.1.15,2013-11-08 12:20:00,
2013-11-08 04:30:00,37.6,32.3,30.10,West,281,0.0,0.0,81,0.00,,,0.00,Wunderground v.1.15,2013-11-08 12:30:00,
2013-11-08 04:35:00,37.6,32.3,30.10,West,281,0.0,0.0,81,0.00,,,0.00,Wunderground v.1.15,2013-11-08 12:35:00,
2013-11-08 04:45:00,37.5,32.2,30.10,West,281,0.0,0.0,81,0.00,,,0.00,Wunderground v.1.15,2013-11-08 12:45:00,
2013-11-08 04:50:00,37.3,32.0,30.10,West,281,0.0,0.0,81,0.00,,,0.00,Wunderground v.1.15,2013-11-08 12:50:00,
2013-11-08 05:00:00,37.2,31.9,30.10,West,281,0.0,0.0,81,0.00,,,0.00,Wunderground v.1.15,2013-11-08 13:00:00,
2013-11-08 05:05:00,37.2,31.9,30.10,West,281,0.0,0.0,81,0.00,,,0.00,Wunderground v.1.15,2013-11-08 13:05:00,
2013-11-08 05:15:00,37.0,31.7,30.10,West,281,0.0,0.0,81,0.00,,,0.00,Wunderground v.1.15,2013-11-08 13:15:00,
2013-11-08 05:20:00,37.0,31.7,30.10,WNW,282,0.0,0.0,81,0.00,,,0.00,Wunderground v.1.15,2013-11-08 13:20:00,
2013-11-08 05:30:00,36.8,31.8,30.10,West,281,0.0,0.0,82,0.00,,,0.00,Wunderground v.1.15,2013-11-08 13:30:00,
2013-11-08 05:35:00,36.8,31.8,30.10,West,281,0.0,0.0,82,0.00,,,0.00,Wunderground v.1.15,2013-11-08 13:35:00,
2013-11-08 05:45:00,36.6,31.6,30.10,West,281,0.0,0.0,82,0.00,,,0.00,Wunderground v.1.15,2013-11-08 13:45:00,
2013-11-08 05:50:00,36.5,31.5,30.10,West,281,0.0,0.0,82,0.00,,,0.00,Wunderground v.1.15,2013-11-08 13:50:00,
2013-11-08 06:00:00,36.5,31.8,30.11,West,281,0.0,0.0,83,0.00,,,0.00,Wunderground v.1.15,2013-11-08 14:00:00,
2013-11-08 06:10:00,36.3,31.6,30.11,West,281,0.0,0.0,83,0.00,,,0.00,Wunderground v.1.15,2013-11-08 14:10:00,
2013-11-08 06:15:00,36.2,31.5,30.10,West,281,0.0,0.0,83,0.00,,,0.00,Wunderground v.1.15,2013-11-08 14:15:00,
2013-11-08 06:20:00,36.2,31.5,30.10,West,281,0.0,0.0,83,0.00,,,0.00,Wunderground v.1.15,2013-11-08 14:20:00,
2013-11-08 06:30:00,35.9,31.5,30.10,West,281,0.0,0.0,84,0.00,,,0.00,Wunderground v.1.15,2013-11-08 14:30:00,
2013-11-08 06:35:00,35.8,31.4,30.10,West,281,0.0,0.0,84,0.00,,,0.00,Wunderground v.1.15,2013-11-08 14:35:00,
2013-11-08 06:45:00,35.6,31.2,30.11,West,281,0.0,0.0,84,0.00,,,0.00,Wunderground v.1.15,2013-11-08 14:45:00,
2013-11-08 06:50:00,35.5,31.1,30.11,West,281,0.0,0.0,84,0.00,,,0.00,Wunderground v.1.15,2013-11-08 14:50:00,
2013-11-08 07:00:00,35.5,31.1,30.11,West,281,0.0,0.0,84,0.00,,,0.00,Wunderground v.1.15,2013-11-08 15:00:00,
2013-11-08 07:05:00,35.5,31.1,30.11,WNW,282,0.0,0.0,84,0.00,,,0.00,Wunderground v.1.15,2013-11-08 15:05:00,
2013-11-08 07:15:00,35.6,31.2,30.11,West,281,0.0,0.0,84,0.00,,,0.00,Wunderground v.1.15,2013-11-08 15:15:00,
2013-11-08 07:20:00,35.8,31.4,30.11,West,281,0.0,0.0,84,0.00,,,0.00,Wunderground v.1.15,2013-11-08 15:20:00,
2013-11-08 07:30:00,36.5,32.1,30.11,West,281,0.0,0.0,84,0.00,,,0.00,Wunderground v.1.15,2013-11-08 15:30:00,
2013-11-08 07:35:00,37.2,32.8,30.11,West,281,0.0,0.0,84,0.00,,,0.00,Wunderground v.1.15,2013-11-08 15:35:00,
2013-11-08 07:45:00,38.6,33.6,30.11,West,281,0.0,0.0,82,0.00,,,0.00,Wunderground v.1.15,2013-11-08 15:45:00,
2013-11-08 07:50:00,39.1,34.1,30.11,West,281,0.0,0.0,82,0.00,,,0.00,Wunderground v.1.15,2013-11-08 15:50:00,
2013-11-08 08:00:00,40.5,35.1,30.11,West,281,0.0,0.0,81,0.00,,,0.00,Wunderground v.1.15,2013-11-08 16:00:00,
2013-11-08 08:05:00,40.8,35.1,30.11,West,281,0.0,0.0,80,0.00,,,0.00,Wunderground v.1.15,2013-11-08 16:05:00,
2013-11-08 08:10:00,41.1,35.4,30.11,West,281,0.0,0.0,80,0.00,,,0.00,Wunderground v.1.15,2013-11-08 16:10:00,
2013-11-08 08:20:00,42.3,36.9,30.11,West,281,0.0,0.0,81,0.00,,,0.00,Wunderground v.1.15,2013-11-08 16:20:00,
2013-11-08 08:30:00,46.8,38.2,30.11,West,281,0.0,0.0,72,0.00,,,0.00,Wunderground v.1.15,2013-11-08 16:30:00,
2013-11-08 08:35:00,47.7,38.4,30.11,West,281,0.0,0.0,70,0.00,,,0.00,Wunderground v.1.15,2013-11-08 16:35:00,
2013-11-08 08:45:00,49.5,38.6,30.11,West,281,0.0,0.0,66,0.00,,,0.00,Wunderground v.1.15,2013-11-08 16:45:00,
2013-11-08 08:50:00,51.1,39.7,30.11,West,281,0.0,0.0,65,0.00,,,0.00,Wunderground v.1.15,2013-11-08 16:50:00,
2013-11-08 09:00:00,53.8,41.1,30.10,West,281,0.0,0.0,62,0.00,,,0.00,Wunderground v.1.15,2013-11-08 17:00:00,
2013-11-08 09:10:00,54.5,40.9,30.10,West,281,0.0,0.0,60,0.00,,,0.00,Wunderground v.1.15,2013-11-08 17:10:00,
2013-11-08 09:15:00,55.0,41.4,30.10,West,281,0.0,0.0,60,0.00,,,0.00,Wunderground v.1.15,2013-11-08 17:15:00,
2013-11-08 09:20:00,55.9,41.8,30.10,West,281,0.0,0.0,59,0.00,,,0.00,Wunderground v.1.15,2013-11-08 17:20:00,
2013-11-08 09:30:00,57.6,42.9,30.09,West,281,0.0,0.0,58,0.00,,,0.00,Wunderground v.1.15,2013-11-08 17:30:00,
2013-11-08 09:40:00,59.6,43.9,30.09,West,281,0.0,0.0,56,0.00,,,0.00,Wunderground v.1.15,2013-11-08 17:40:00,
2013-11-08 09:50:00,61.3,44.5,30.08,SE,135,0.0,0.0,54,0.00,,,0.00,Wunderground v.1.15,2013-11-08 17:50:00,
2013-11-08 10:00:00,62.4,44.5,30.08,SE,135,0.0,0.0,52,0.00,,,0.00,Wunderground v.1.15,2013-11-08 18:00:00,
2013-11-08 10:10:00,63.2,44.2,30.08,ESE,119,0.0,0.0,50,0.00,,,0.00,Wunderground v.1.15,2013-11-08 18:10:00,
2013-11-08 10:15:00,64.2,44.6,30.08,ESE,119,0.0,0.0,49,0.00,,,0.00,Wunderground v.1.15,2013-11-08 18:15:00,
2013-11-08 10:20:00,64.3,44.2,30.08,ESE,119,0.0,0.0,48,0.00,,,0.00,Wunderground v.1.15,2013-11-08 18:20:00,
2013-11-08 10:30:00,65.6,44.3,30.07,ESE,123,0.0,0.0,46,0.00,,,0.00,Wunderground v.1.15,2013-11-08 18:30:00,
2013-11-08 10:40:00,66.8,44.2,30.07,ESE,110,0.0,0.0,44,0.00,,,0.00,Wunderground v.1.15,2013-11-08 18:40:00,
2013-11-08 10:45:00,66.9,43.7,30.06,SE,134,0.0,0.0,43,0.00,,,0.00,Wunderground v.1.15,2013-11-08 18:45:00,
2013-11-08 10:50:00,67.3,44.0,30.06,ESE,115,0.0,0.0,43,0.00,,,0.00,Wunderground v.1.15,2013-11-08 18:50:00,
2013-11-08 11:00:00,69.1,43.8,30.06,ESE,115,0.0,0.0,40,0.00,,,0.00,Wunderground v.1.15,2013-11-08 19:00:00,
2013-11-08 11:10:00,69.6,43.5,30.06,ESE,115,0.0,0.0,39,0.00,,,0.00,Wunderground v.1.15,2013-11-08 19:10:00,
2013-11-08 11:20:00,69.6,42.9,30.05,East,97,1.0,1.0,38,0.00,,,0.00,Wunderground v.1.15,2013-11-08 19:20:00,
2013-11-08 11:25:00,69.6,42.9,30.05,East,100,1.0,1.0,38,0.00,,,0.00,Wunderground v.1.15,2013-11-08 19:25:00,
2013-11-08 11:35:00,70.1,42.6,30.04,East,97,1.0,2.0,37,0.00,,,0.00,Wunderground v.1.15,2013-11-08 19:35:00,
2013-11-08 11:40:00,70.1,42.6,30.04,East,84,1.0,1.0,37,0.00,,,0.00,Wunderground v.1.15,2013-11-08 19:40:00,
2013-11-08 11:50:00,70.9,42.6,30.03,ENE,78,1.0,1.0,36,0.00,,,0.00,Wunderground v.1.15,2013-11-08 19:50:00,
2013-11-08 12:00:00,71.1,42.0,30.01,ESE,115,1.0,1.0,35,0.00,,,0.00,Wunderground v.1.15,2013-11-08 20:00:00,
2013-11-08 12:05:00,70.9,41.9,30.01,ESE,115,3.0,3.0,35,0.00,,,0.00,Wunderground v.1.15,2013-11-08 20:05:00,
2013-11-08 12:15:00,72.1,42.2,30.00,ESE,117,2.0,3.0,34,0.00,,,0.00,Wunderground v.1.15,2013-11-08 20:15:00,
2013-11-08 12:20:00,72.8,42.0,30.00,ENE,65,1.0,5.0,33,0.00,,,0.00,Wunderground v.1.15,2013-11-08 20:20:00,
2013-11-08 12:30:00,72.7,41.1,30.00,East,97,2.0,7.0,32,0.00,,,0.00,Wunderground v.1.15,2013-11-08 20:30:00,
2013-11-08 12:35:00,72.7,41.9,30.00,East,86,3.0,7.0,33,0.00,,,0.00,Wunderground v.1.15,2013-11-08 20:35:00,
2013-11-08 12:45:00,73.0,41.4,29.98,ENE,67,4.0,5.0,32,0.00,,,0.00,Wunderground v.1.15,2013-11-08 20:45:00,
2013-11-08 12:50:00,73.3,41.6,29.98,SE,126,4.0,4.0,32,0.00,,,0.00,Wunderground v.1.15,2013-11-08 20:50:00,
2013-11-08 13:00:00,74.2,41.6,29.98,ESE,105,1.0,1.0,31,0.00,,,0.00,Wunderground v.1.15,2013-11-08 21:00:00,
2013-11-08 13:10:00,74.6,41.1,29.98,East,81,1.0,1.0,30,0.00,,,0.00,Wunderground v.1.15,2013-11-08 21:10:00,
2013-11-08 13:15:00,74.6,41.1,29.97,ESE,119,1.0,1.0,30,0.00,,,0.00,Wunderground v.1.15,2013-11-08 21:15:00,
2013-11-08 13:20:00,75.3,40.8,29.97,NNW,340,1.0,1.0,29,0.00,,,0.00,Wunderground v.1.15,2013-11-08 21:20:00,
2013-11-08 13:30:00,76.0,40.5,29.97,NW,309,2.0,2.0,28,0.00,,,0.00,Wunderground v.1.15,2013-11-08 21:30:00,
2013-11-08 13:35:00,76.0,40.5,29.97,SSW,195,3.0,7.0,28,0.00,,,0.00,Wunderground v.1.15,2013-11-08 21:35:00,
2013-11-08 13:45:00,75.4,40.9,29.96,WNW,284,5.0,5.0,29,0.00,,,0.00,Wunderground v.1.15,2013-11-08 21:45:00,
2013-11-08 13:50:00,75.8,41.3,29.96,NNW,331,5.0,6.0,29,0.00,,,0.00,Wunderground v.1.15,2013-11-08 21:50:00,
2013-11-08 14:00:00,75.8,41.3,29.95,WNW,282,4.0,9.0,29,0.00,,,0.00,Wunderground v.1.15,2013-11-08 22:00:00,
2013-11-08 14:10:00,75.6,42.0,29.95,WNW,290,4.0,5.0,30,0.00,,,0.00,Wunderground v.1.15,2013-11-08 22:10:00,
2013-11-08 14:15:00,75.4,42.7,29.95,WSW,258,3.0,6.0,31,0.00,,,0.00,Wunderground v.1.15,2013-11-08 22:15:00,
2013-11-08 14:25:00,75.4,42.7,29.95,West,261,4.0,4.0,31,0.00,,,0.00,Wunderground v.1.15,2013-11-08 22:25:00,
2013-11-08 14:30:00,75.4,42.7,29.95,West,269,3.0,3.0,31,0.00,,,0.00,Wunderground v.1.15,2013-11-08 22:30:00,
2013-11-08 14:40:00,75.3,43.4,29.95,East,93,2.0,2.0,32,0.00,,,0.00,Wunderground v.1.15,2013-11-08 22:40:00,
2013-11-08 14:45:00,74.9,42.2,29.95,NW,315,3.0,3.0,31,0.00,,,0.00,Wunderground v.1.15,2013-11-08 22:45:00,
2013-11-08 14:55:00,74.9,43.0,29.95,WNW,283,2.0,4.0,32,0.00,,,0.00,Wunderground v.1.15,2013-11-08 22:55:00,
2013-11-08 15:00:00,74.9,43.0,29.95,WNW,293,2.0,4.0,32,0.00,,,0.00,Wunderground v.1.15,2013-11-08 23:00:00,
2013-11-08 15:10:00,74.6,43.6,29.95,WNW,297,4.0,4.0,33,0.00,,,0.00,Wunderground v.1.15,2013-11-08 23:10:00,
2013-11-08 15:20:00,74.7,43.7,29.94,WSW,251,2.0,2.0,33,0.00,,,0.00,Wunderground v.1.15,2013-11-08 23:20:00,
2013-11-08 15:25:00,74.4,44.2,29.94,NW,314,2.0,2.0,34,0.00,,,0.00,Wunderground v.1.15,2013-11-08 23:25:00,
2013-11-08 15:30:00,74.2,44.0,29.94,WNW,288,2.0,8.0,34,0.00,,,0.00,Wunderground v.1.15,2013-11-08 23:30:00,
2013-11-08 15:40:00,73.9,44.5,29.94,WNW,285,3.0,3.0,35,0.00,,,0.00,Wunderground v.1.15,2013-11-08 23:40:00,
2013-11-08 15:50:00,73.3,44.7,29.94,North,10,0.0,0.0,36,0.00,,,0.00,Wunderground v.1.15,2013-11-08 23:50:00,
2013-11-08 15:55:00,72.8,45.0,29.94,ENE,67,0.0,0.0,37,0.00,,,0.00,Wunderground v.1.15,2013-11-08 23:55:00,
2013-11-08 16:05:00,72.3,45.3,29.94,ENE,59,0.0,0.0,38,0.00,,,0.00,Wunderground v.1.15,2013-11-09 00:05:00,
2013-11-08 16:10:00,72.0,45.7,29.94,ENE,59,0.0,0.0,39,0.00,,,0.00,Wunderground v.1.15,2013-11-09 00:10:00,
2013-11-08 16:20:00,71.1,45.5,29.94,ENE,59,0.0,0.0,40,0.00,,,0.00,Wunderground v.1.15,2013-11-09 00:20:00,
2013-11-08 16:25:00,70.8,45.3,29.94,ENE,59,0.0,0.0,40,0.00,,,0.00,Wunderground v.1.15,2013-11-09 00:25:00,
2013-11-08 16:35:00,70.1,45.3,29.94,ENE,59,0.0,0.0,41,0.00,,,0.00,Wunderground v.1.15,2013-11-09 00:35:00,
2013-11-08 16:40:00,69.6,45.5,29.94,ENE,59,0.0,0.0,42,0.00,,,0.00,Wunderground v.1.15,2013-11-09 00:40:00,
2013-11-08 16:50:00,68.4,45.0,29.93,ENE,59,0.0,0.0,43,0.00,,,0.00,Wunderground v.1.15,2013-11-09 00:50:00,
2013-11-08 17:00:00,66.8,44.8,29.93,ENE,59,0.0,0.0,45,0.00,,,0.00,Wunderground v.1.15,2013-11-09 01:00:00,
2013-11-08 17:05:00,66.3,44.9,29.93,ENE,59,0.0,0.0,46,0.00,,,0.00,Wunderground v.1.15,2013-11-09 01:05:00,
2013-11-08 17:15:00,64.7,44.5,29.94,ENE,59,0.0,2.0,48,0.00,,,0.00,Wunderground v.1.15,2013-11-09 01:15:00,
2013-11-08 17:20:00,63.9,43.8,29.94,ENE,59,0.0,0.0,48,0.00,,,0.00,Wunderground v.1.15,2013-11-09 01:20:00,
2013-11-08 17:30:00,62.3,43.9,29.94,ENE,59,0.0,0.0,51,0.00,,,0.00,Wunderground v.1.15,2013-11-09 01:30:00,
2013-11-08 17:35:00,61.6,43.8,29.94,ENE,59,0.0,0.0,52,0.00,,,0.00,Wunderground v.1.15,2013-11-09 01:35:00,
2013-11-08 17:45:00,60.1,42.9,29.95,ENE,59,0.0,0.0,53,0.00,,,0.00,Wunderground v.1.15,2013-11-09 01:45:00,
2013-11-08 17:50:00,59.3,42.6,29.95,ENE,59,0.0,0.0,54,0.00,,,0.00,Wunderground v.1.15,2013-11-09 01:50:00,
2013-11-08 18:00:00,58.1,42.5,29.95,ENE,59,0.0,0.0,56,0.00,,,0.00,Wunderground v.1.15,2013-11-09 02:00:00,
2013-11-08 18:05:00,57.3,42.2,29.95,ENE,59,0.0,0.0,57,0.00,,,0.00,Wunderground v.1.15,2013-11-09 02:05:00,
2013-11-08 18:15:00,56.2,41.2,29.96,ENE,59,0.0,0.0,57,0.00,,,0.00,Wunderground v.1.15,2013-11-09 02:15:00,
2013-11-08 18:20:00,55.7,42.0,29.96,ENE,59,0.0,0.0,60,0.00,,,0.00,Wunderground v.1.15,2013-11-09 02:20:00,
2013-11-08 18:30:00,54.8,41.2,29.97,ENE,59,0.0,0.0,60,0.00,,,0.00,Wunderground v.1.15,2013-11-09 02:30:00,
2013-11-08 18:35:00,54.5,40.9,29.97,ENE,59,0.0,0.0,60,0.00,,,0.00,Wunderground v.1.15,2013-11-09 02:35:00,
2013-11-08 18:45:00,53.6,40.5,29.97,ENE,59,0.0,0.0,61,0.00,,,0.00,Wunderground v.1.15,2013-11-09 02:45:00,
2013-11-08 18:50:00,53.3,40.6,29.97,ENE,59,0.0,0.0,62,0.00,,,0.00,Wunderground v.1.15,2013-11-09 02:50:00,
2013-11-08 19:00:00,52.5,40.3,29.97,ENE,59,0.0,0.0,63,0.00,,,0.00,Wunderground v.1.15,2013-11-09 03:00:00,
2013-11-08 19:05:00,52.2,40.0,29.97,West,278,1.0,1.0,63,0.00,,,0.00,Wunderground v.1.15,2013-11-09 03:05:00,
2013-11-08 19:10:00,52.0,39.8,29.97,West,278,1.0,1.0,63,0.00,,,0.00,Wunderground v.1.15,2013-11-09 03:10:00,
2013-11-08 19:20:00,51.3,39.5,29.97,West,278,0.0,0.0,64,0.00,,,0.00,Wunderground v.1.15,2013-11-09 03:20:00,
2013-11-08 19:30:00,50.5,39.2,29.97,West,278,0.0,0.0,65,0.00,,,0.00,Wunderground v.1.15,2013-11-09 03:30:00,
2013-11-08 19:35:00,50.1,38.8,29.97,West,278,0.0,0.0,65,0.00,,,0.00,Wunderground v.1.15,2013-11-09 03:35:00,
2013-11-08 19:45:00,49.5,39.0,29.97,West,278,0.0,0.0,67,0.00,,,0.00,Wunderground v.1.15,2013-11-09 03:45:00,
2013-11-08 19:50:00,49.4,38.5,29.97,West,278,0.0,0.0,66,0.00,,,0.00,Wunderground v.1.15,2013-11-09 03:50:00,
2013-11-08 20:00:00,48.9,38.4,29.98,West,278,0.0,0.0,67,0.00,,,0.00,Wunderground v.1.15,2013-11-09 04:00:00,
2013-11-08 20:05:00,48.8,38.3,29.98,West,278,0.0,0.0,67,0.00,,,0.00,Wunderground v.1.15,2013-11-09 04:05:00,
2013-11-08 20:10:00,48.3,37.8,29.98,West,278,0.0,0.0,67,0.00,,,0.00,Wunderground v.1.15,2013-11-09 04:10:00,
2013-11-08 20:20:00,47.7,37.7,29.98,West,278,0.0,0.0,68,0.00,,,0.00,Wunderground v.1.15,2013-11-09 04:20:00,
2013-11-08 20:30:00,47.1,37.4,29.99,West,278,0.0,0.0,69,0.00,,,0.00,Wunderground v.1.15,2013-11-09 04:30:00,
2013-11-08 20:35:00,47.0,37.4,29.99,West,278,0.0,0.0,69,0.00,,,0.00,Wunderground v.1.15,2013-11-09 04:35:00,
2013-11-08 20:45:00,46.5,37.2,29.99,West,278,0.0,0.0,70,0.00,,,0.00,Wunderground v.1.15,2013-11-09 04:45:00,
2013-11-08 20:50:00,46.4,37.5,29.99,West,278,0.0,0.0,71,0.00,,,0.00,Wunderground v.1.15,2013-11-09 04:50:00,
2013-11-08 21:00:00,46.1,36.9,30.00,West,278,0.0,0.0,70,0.00,,,0.00,Wunderground v.1.15,2013-11-09 05:00:00,
2013-11-08 21:05:00,46.0,37.1,30.00,West,278,0.0,0.0,71,0.00,,,0.00,Wunderground v.1.15,2013-11-09 05:05:00,
2013-11-08 21:15:00,45.8,36.9,30.00,West,278,0.0,0.0,71,0.00,,,0.00,Wunderground v.1.15,2013-11-09 05:15:00,
2013-11-08 21:20:00,45.5,36.6,30.00,West,278,0.0,0.0,71,0.00,,,0.00,Wunderground v.1.15,2013-11-09 05:20:00,
2013-11-08 21:25:00,45.4,36.9,30.00,West,278,0.0,0.0,72,0.00,,,0.00,Wunderground v.1.15,2013-11-09 05:25:00,
2013-11-08 21:30:00,45.2,36.7,30.00,West,278,0.0,0.0,72,0.00,,,0.00,Wunderground v.1.15,2013-11-09 05:30:00,
2013-11-08 21:35:00,44.8,36.3,30.00,West,278,0.0,0.0,72,0.00,,,0.00,Wunderground v.1.15,2013-11-09 05:35:00,
2013-11-08 21:45:00,44.6,36.8,30.01,West,278,0.0,0.0,74,0.00,,,0.00,Wunderground v.1.15,2013-11-09 05:45:00,
2013-11-08 21:50:00,44.3,36.2,30.01,West,278,0.0,0.0,73,0.00,,,0.00,Wunderground v.1.15,2013-11-09 05:50:00,
2013-11-08 22:00:00,43.8,36.0,30.01,West,278,0.0,0.0,74,0.00,,,0.00,Wunderground v.1.15,2013-11-09 06:00:00,
2013-11-08 22:05:00,43.5,35.8,30.01,West,278,0.0,0.0,74,0.00,,,0.00,Wunderground v.1.15,2013-11-09 06:05:00,
2013-11-08 22:15:00,43.3,35.6,30.02,West,278,0.0,0.0,74,0.00,,,0.00,Wunderground v.1.15,2013-11-09 06:15:00,
2013-11-08 22:20:00,43.2,35.5,30.02,West,278,0.0,0.0,74,0.00,,,0.00,Wunderground v.1.15,2013-11-09 06:20:00,
2013-11-08 22:30:00,43.1,35.7,30.02,West,278,0.0,0.0,75,0.00,,,0.00,Wunderground v.1.15,2013-11-09 06:30:00,
2013-11-08 22:40:00,42.8,35.4,30.02,West,278,0.0,0.0,75,0.00,,,0.00,Wunderground v.1.15,2013-11-09 06:40:00,
2013-11-08 22:45:00,42.5,35.1,30.01,West,278,0.0,0.0,75,0.00,,,0.00,Wunderground v.1.15,2013-11-09 06:45:00,
2013-11-08 22:50:00,42.3,35.3,30.01,West,278,0.0,0.0,76,0.00,,,0.00,Wunderground v.1.15,2013-11-09 06:50:00,
2013-11-08 23:00:00,41.9,34.9,30.02,West,278,0.0,1.0,76,0.00,,,0.00,Wunderground v.1.15,2013-11-09 07:00:00,
2013-11-08 23:10:00,41.6,34.9,30.02,West,278,0.0,0.0,77,0.00,,,0.00,Wunderground v.1.15,2013-11-09 07:10:00,
2013-11-08 23:20:00,41.3,34.6,30.02,West,278,0.0,0.0,77,0.00,,,0.00,Wunderground v.1.15,2013-11-09 07:20:00,
2013-11-08 23:25:00,41.2,34.5,30.02,West,278,0.0,0.0,77,0.00,,,0.00,Wunderground v.1.15,2013-11-09 07:25:00,
2013-11-08 23:35:00,41.1,34.4,30.02,West,278,0.0,0.0,77,0.00,,,0.00,Wunderground v.1.15,2013-11-09 07:35:00,
2013-11-08 23:40:00,41.1,34.4,30.02,West,278,0.0,0.0,77,0.00,,,0.00,Wunderground v.1.15,2013-11-09 07:40:00,
2013-11-08 23:50:00,40.8,34.5,30.02,West,278,0.0,0.0,78,0.00,,,0.00,Wunderground v.1.15,2013-11-09 07:50:00,
2013-11-08 23:55:00,40.8,34.1,30.02,West,278,0.0,0.0,77,0.00,,,0.00,Wunderground v.1.15,2013-11-09 07:55:00,